sat.trackr.live / text

‹ back to catalog

STARLINK-3602

NORAD 51791 · 2022-017Z

PAYLOAD ACTIVE UNKNOWN

§ Identity

Operator
Country
US
Launch date
2022-02-25
Launch site
AFWTR
Launch vehicle
Mass (kg)
RCS (m²)

Purposes: comms

External: N2YO · Heavens-Above · Gunter

§ Orbital elements

Epoch: 2026-05-25T00:40:05.965248Z

Period
95.44 min
Inclination
53.2135°
Eccentricity
0.0001568
Mean motion
15.08843307 rev/d
Perigee alt
538.6 km
Apogee alt
540.8 km
Semi-major
6,917.9 km
B*
1.0543e-5
RAAN
6.4255°
Arg perigee
96.4997°
Mean anomaly
263.6174°
Rev number
23,544

§ Raw data

STARLINK-36021 51791U 22017Z   26145.02784682 -.00000120  00000+0  10543-4 0  99902 51791  53.2135   6.4255 0001568  96.4997 263.6174 15.08843307235446

JSON: /api/v1/satellites/51791 · /tle

For live sub-satellite position, see the globe view (requires WebGL).

§ Visibility from observer

Set your observer location to see the next 7 days of passes ≥ 10°. The values pass through the URL so the page stays shareable.

No JS? Fill the form by hand. The geolocation button needs JavaScript.